TimeCST,TemperatureF,Dew PointF,Humidity,Sea Level PressureIn,VisibilityMPH,Wind Direction,Wind SpeedMPH,Gust SpeedMPH,PrecipitationIn,Events,Conditions,WindDirDegrees,DateUTC
12:54 AM,30.0,25.0,82,30.36,10.0,SSE,8.1,-,N/A,,Overcast,150,2013-02-09 06:54:00
1:54 AM,28.9,24.1,82,30.35,10.0,SSE,9.2,-,N/A,,Overcast,160,2013-02-09 07:54:00
2:54 AM,28.0,24.1,85,30.35,10.0,SSE,10.4,-,N/A,,Overcast,150,2013-02-09 08:54:00
3:42 AM,28.4,24.8,86,30.31,9.0,SE,12.7,-,N/A,,Overcast,140,2013-02-09 09:42:00
3:54 AM,28.0,24.1,85,30.33,9.0,SE,11.5,-,N/A,,Overcast,140,2013-02-09 09:54:00
4:54 AM,28.0,24.1,85,30.33,8.0,SSE,6.9,-,N/A,,Overcast,150,2013-02-09 10:54:00
5:54 AM,28.0,23.0,81,30.33,9.0,SSE,10.4,-,N/A,,Overcast,150,2013-02-09 11:54:00
6:42 AM,28.4,23.0,80,30.30,9.0,SSE,8.1,-,N/A,,Overcast,160,2013-02-09 12:42:00
6:54 AM,28.0,23.0,81,30.33,10.0,SSE,11.5,-,N/A,,Overcast,160,2013-02-09 12:54:00
7:54 AM,28.0,24.1,85,30.32,9.0,SSE,10.4,-,N/A,,Overcast,150,2013-02-09 13:54:00
8:54 AM,28.9,24.1,82,30.31,10.0,SSE,10.4,-,N/A,,Overcast,150,2013-02-09 14:54:00
9:54 AM,30.0,24.1,79,30.30,10.0,SSE,11.5,-,N/A,,Overcast,160,2013-02-09 15:54:00
10:54 AM,30.9,25.0,79,30.29,10.0,SE,13.8,-,N/A,,Overcast,140,2013-02-09 16:54:00
11:54 AM,33.1,26.1,75,30.27,10.0,SE,12.7,-,N/A,,Overcast,140,2013-02-09 17:54:00
12:12 PM,33.8,26.6,75,30.23,10.0,SSE,13.8,-,N/A,,Mostly Cloudy,150,2013-02-09 18:12:00
12:49 PM,35.6,26.6,70,30.20,10.0,SSE,12.7,-,N/A,,Partly Cloudy,160,2013-02-09 18:49:00
12:54 PM,35.1,27.0,72,30.22,10.0,SSE,13.8,-,N/A,,Partly Cloudy,150,2013-02-09 18:54:00
1:54 PM,37.0,28.0,70,30.17,10.0,SE,15.0,-,N/A,,Clear,130,2013-02-09 19:54:00
2:54 PM,39.0,28.9,67,30.14,10.0,SE,13.8,-,N/A,,Clear,140,2013-02-09 20:54:00
3:54 PM,39.0,28.9,67,30.12,10.0,SE,13.8,-,N/A,,Clear,140,2013-02-09 21:54:00
4:54 PM,37.0,28.9,73,30.08,10.0,SE,11.5,-,N/A,,Clear,130,2013-02-09 22:54:00
5:54 PM,34.0,28.0,79,30.07,10.0,SE,9.2,-,N/A,,Clear,140,2013-02-09 23:54:00
6:54 PM,36.0,28.9,76,30.07,10.0,SE,10.4,-,N/A,,Mostly Cloudy,140,2013-02-10 00:54:00
7:54 PM,36.0,28.9,76,30.05,10.0,SSE,11.5,-,N/A,,Scattered Clouds,150,2013-02-10 01:54:00
8:54 PM,37.0,28.0,70,30.02,10.0,SSE,15.0,19.6,N/A,,Mostly Cloudy,160,2013-02-10 02:54:00
9:54 PM,37.0,28.9,73,30.00,10.0,SSE,12.7,-,N/A,,Partly Cloudy,150,2013-02-10 03:54:00
10:54 PM,37.0,30.0,76,30.01,9.0,SSE,11.5,-,0.00,Rain,Light Rain,160,2013-02-10 04:54:00
11:54 PM,36.0,32.0,86,29.99,5.0,SSE,12.7,-,0.04,Rain,Light Rain,150,2013-02-10 05:54:00